Location: Byszew
(52.1813°N, 19.2693°E)
Time: 22:42:40
(UTC+00:00)

Cosmos 2322 Rocket - Pass Details

Date: 28 June 2021
Orbit: 833 x 850 km, 71.0° (Epoch: 26 July)

Event Time Altitude Azimuth Distance (km) Brightness Sun altitude
Rises 22:19:34 0° 312° (NW) 3,425 6.2 -14.4°
Reaches altitude 10° 22:24:08 10° 346° (NNW) 2,486 6.0 -14.4°
Maximum altitude 22:25:55 11° 4° (N) 2,387 5.9 -14.5°
Drops below altitude 10° 22:27:41 10° 22° (NNE) 2,483 5.7 -14.5°
Sets 22:32:15 0° 56° (NE) 3,413 5.8 -14.5°
